DW7032 Weather Reports


time (UTC)temp
F
wind
direction
speed
knots
gust
knots
rain 1hr
in
rain 24hr
in
rain mn
in
humidity
%
barometer
mb
20260510224552 48 360 0.9 5.2 0.00 0.00 0.00 48 1020.4
20260510223106 49 33 0.9 5.2 0.00 0.00 0.00 45 1020.3
20260510221545 50 298 3.5 8.7 0.00 0.00 0.00 45 1020.1
20260510220044 49 314 0.9 4.3 0.00 0.00 0.00 49 1019.9
20260510214542 48 295 2.6 7.0 0.00 0.00 0.00 54 1019.7
20260510213057 48 264 2.6 7.0 0.00 0.00 0.00 54 1019.7
20260510211540 48 264 2.6 7.8 0.00 0.00 0.00 54 1019.7
20260510210050 49 283 5.2 9.6 0.00 0.00 0.00 50 1019.7
20260510204551 50 347 0.9 4.3 0.00 0.00 0.00 51 1019.5
20260510203037 49 347 1.7 8.7 0.00 0.00 0.00 53 1019.4
20260510201536 48 297 2.6 7.8 0.00 0.00 0.00 55 1019.5
20260510200034 48 252 1.7 5.2 0.00 0.00 0.00 57 1019.2
20260510194533 46 194 1.7 7.0 0.00 0.00 0.00 59 1019.2
20260510193032 45 347 0.9 4.3 0.00 0.00 0.00 64 1019.2
20260510191536 44 258 0.9 5.2 0.00 0.00 0.00 65 1019.2
20260510190035 44 336 0.9 7.8 0.00 0.00 0.00 67 1019.2
20260510184534 45 242 1.7 10.4 0.00 0.00 0.00 62 1019.1
20260510183026 46 207 1.7 4.3 0.00 0.00 0.00 61 1018.5
20260510181557 45 53 1.7 6.1 0.00 0.00 0.00 65 1018.2
20260510180034 44 291 1.7 6.1 0.00 0.00 0.00 69 1018.2
20260510174531 42 23 0.9 6.1 0.00 0.00 0.00 71 1018.2
20260510173022 43 216 2.6 7.0 0.00 0.00 0.00 68 1018.3
20260510171523 45 264 1.7 11.3 0.00 0.00 0.00 63 1018.2
20260510170020 45 290 2.6 9.6 0.00 0.00 0.00 66 1018.0
20260510164523 45 236 2.6 7.8 0.00 0.00 0.00 65 1017.8
20260510163020 48 269 4.3 8.7 0.00 0.00 0.00 60 1017.5
20260510161516 48 280 3.5 7.0 0.00 0.00 0.00 64 1017.4
20260510160020 47 281 4.3 7.8 0.00 0.00 0.00 61 1017.2
20260510154513 48 179 2.6 13.9 0.00 0.00 0.00 58 1017.0
20260510153011 47 207 3.5 7.8 0.00 0.00 0.00 63 1016.8
20260510151510 47 227 2.6 7.0 0.00 0.00 0.00 63 1016.6
20260510150008 46 254 4.3 8.7 0.00 0.00 0.00 64 1016.4
20260510144508 45 251 3.5 7.0 0.00 0.00 0.00 64 1016.2
20260510143007 46 241 3.5 9.6 0.00 0.00 0.00 60 1016.2
20260510141503 48 238 2.6 10.4 0.00 0.00 0.00 55 1016.0
20260510140101 47 276 1.7 6.1 0.00 0.00 0.00 54 1015.8
20260510134605 47 259 1.7 4.3 0.00 0.00 0.00 56 1015.9
20260510133055 46 310 2.6 4.3 0.00 0.00 0.00 57 1015.9
20260510131551 46 293 2.6 7.0 0.00 0.00 0.00 62 1015.9
20260510130048 44 210 2.6 5.2 0.00 0.00 0.00 62 1015.8
20260510124545 43 326 0.9 9.6 0.00 0.00 0.00 67 1015.7
20260510123041 42 287 0.0 5.2 0.00 0.00 0.00 70 1015.7
20260510121538 41 280 0.9 5.2 0.00 0.00 0.00 73 1015.6
20260510120037 40 294 1.7 3.5 0.00 0.00 0.00 75 1015.4
20260510114538 39 259 0.9 3.5 0.00 0.00 0.00 77 1015.2
20260510113033 39 347 0.9 6.1 0.00 0.00 0.00 79 1015.1
20260510111531 37 278 1.7 4.3 0.00 0.00 0.00 82 1014.9
20260510110033 36 272 0.9 3.5 0.00 0.00 0.00 83 1014.6
20260510104527 35 301 0.9 3.5 0.00 0.00 0.00 83 1014.3
20260510103026 35 310 0.0 1.7 0.00 0.00 0.00 82 1014.1
20260510101520 35 347 0.0 1.7 0.00 0.00 0.00 81 1013.8
20260510100017 36 310 0.0 0.9 0.00 0.00 0.00 80 1013.7
20260510094518 37 310 0.0 1.7 0.00 0.00 0.00 79 1013.5
20260510093012 37 277 0.9 2.6 0.00 0.00 0.00 79 1013.3
20260510091510 38 283 0.9 2.6 0.00 0.00 0.00 79 1013.2
20260510090013 38 288 0.9 2.6 0.00 0.00 0.00 79 1012.9
20260510084507 37 302 0.0 5.2 0.00 0.00 0.00 79 1012.8
20260510083005 37 294 0.9 2.6 0.00 0.00 0.00 77 1012.7
20260510081506 38 298 0.9 2.6 0.00 0.00 0.00 75 1012.6
20260510080000 38 302 2.6 5.2 0.00 0.00 0.00 75 1012.4
20260510074557 39 273 0.9 2.6 0.00 0.00 0.00 74 1012.2
20260510073054 39 292 0.0 5.2 0.00 0.00 0.00 72 1011.9
20260510071557 39 293 1.7 6.1 0.00 0.00 0.00 72 1011.7
20260510070050 39 243 0.0 3.5 0.00 0.00 0.00 70 1011.4
20260510064547 39 347 0.9 3.5 0.00 0.00 0.00 70 1011.5
20260510063047 39 271 0.9 5.2 0.00 0.00 0.00 70 1011.4
20260510061550 39 256 1.7 6.1 0.00 0.00 0.00 70 1011.4
20260510060044 40 283 0.0 2.6 0.00 0.00 0.00 69 1011.2
20260510054547 40 312 0.0 2.6 0.00 0.00 0.00 69 1011.1
20260510053039 40 293 0.9 4.3 0.00 0.00 0.00 68 1011.0
20260510051540 40 305 0.0 1.7 0.00 0.00 0.00 67 1010.9
20260510050037 40 347 0.9 4.3 0.00 0.00 0.00 67 1010.8
20260510044536 41 294 0.0 4.3 0.00 0.00 0.00 66 1010.8
20260510043033 41 316 2.6 7.0 0.00 0.00 0.00 66 1010.7
20260510041530 41 307 0.9 3.5 0.00 0.00 0.00 66 1010.5
20260510040029 41 290 1.7 7.0 0.00 0.00 0.00 66 1010.2
20260510034525 42 325 3.5 10.4 0.00 0.00 0.00 65 1009.9
20260510033022 42 317 1.7 7.0 0.00 0.00 0.00 65 1009.8
20260510031536 42 347 0.9 4.3 0.00 0.00 0.00 65 1009.8
20260510030023 43 288 0.9 3.5 0.00 0.00 0.00 66 1009.9
20260510024533 43 321 1.7 5.2 0.00 0.00 0.00 66 1009.9
20260510023016 43 347 0.9 6.1 0.00 0.00 0.00 65 1009.6
20260510021516 43 321 2.6 5.2 0.00 0.00 0.00 65 1009.5
20260510020014 43 58 0.9 3.5 0.00 0.00 0.00 66 1009.2
20260510014510 43 326 1.7 5.2 0.00 0.00 0.00 66 1008.9
20260510013008 44 303 1.7 9.6 0.00 0.00 0.00 65 1008.6
20260510011506 44 293 2.6 7.0 0.00 0.00 0.00 64 1008.3
20260510010004 45 333 0.9 7.0 0.00 0.00 0.00 63 1008.0
20260510004602 46 308 1.7 5.2 0.00 0.00 0.00 62 1007.8
20260510003116 46 316 0.9 7.0 0.00 0.00 0.00 61 1007.5
20260510001555 47 2 1.7 7.8 0.00 0.00 0.00 60 1007.1
20260510000101 47 273 3.5 8.7 0.00 0.00 0.00 61 1006.9
20260509234602 48 327 2.6 7.8 0.00 0.00 0.00 64 1006.5
20260509233049 48 347 3.5 7.8 0.00 0.00 0.00 64 1006.2
20260509231553 49 291 2.6 9.6 0.00 0.00 0.00 63 1005.9
20260509230055 51 296 2.6 9.6 0.00 0.00 0.00 60 1005.6